Tracking 28794 objects as of 19-Apr-2024
HD Live streaming from Space Station
objects crossing your sky now

AMC-6 (GE-6)

Track AMC-6 (GE-6) now!
AMC-6 (GE-6) is classified as:


NORAD ID: 26580
Int'l Code: 2000-067A
Perigee: 35,780.8 km
Apogee: 35,805.9 km
Inclination: 0.1 °
Period: 1,436.1 minutes
Semi major axis: 42164 km
RCS: 19.9526 m2 (large)
Launch date: October 21, 2000
Source: SOCIETE EUROPEENNE DES SATELLITES (SES)
Launch site: TYURATAM MISSILE AND SPACE COMPLEX (TTMTR)

Business (government and VSAT), media and entertainment; 28 Ku- and 24 C-band; CONUS, Canada, Mexico, Caribbean, Central America
Your satellite tracking list
Your tracking list is empty




NASA's NSSDC Master Catalog

Two Line Element Set (TLE):
1 26580U 00067A   24110.58716314  .00000103  00000-0  00000-0 0  9991
2 26580   0.0643  73.9898 0002986 327.4459 239.1054  1.00273193 85989
Source of the keplerian elements: AFSPC